Location: *
(48.7358°N, 0.3111°E)
Time: 12:00:48
(UTC+00:00)

Cosmos 44 Rocket - Pass Details

Date: 22 October 2019
Orbit: 658 x 732 km, 65.1° (Epoch: 21 November)

Event Time Altitude Azimuth Distance (km) Brightness Sun altitude
Exits shadow 05:39:13 10° 296° (WNW) 2,108 5.2 -8.9°
Reaches altitude 10° 05:39:17 10° 296° (WNW) 2,086 5.2 -8.9°
Maximum altitude 05:42:47 21° 248° (WSW) 1,475 4.5 -8.3°
Drops below altitude 10° 05:46:16 10° 199° (SSW) 2,065 5.6 -7.7°
Sets 05:49:01 0° 184° (S) 2,973 6.6 -7.3°
